Location: Vista Encantada
(35.1109°N, 106.5681°W)
Time: 09:17:19
(UTC+00:00)

Cosmos 1400 Rocket - Pass Details

Date: 29 October 2020
Orbit: 521 x 568 km, 81.2° (Epoch: 04 December)

Event Time Altitude Azimuth Distance (km) Brightness Sun altitude
Rises 12:46:31 0° 335° (NNW) 2,680 6.0 -8.5°
Reaches altitude 10° 12:49:03 10° 319° (NW) 1,777 4.9 -8.0°
Maximum altitude 12:52:01 21° 269° (W) 1,220 4.0 -7.4°
Drops below altitude 10° 12:54:56 10° 220° (SW) 1,754 5.1 -6.8°
Sets 12:57:26 0° 204° (SSW) 2,633 6.2 -6.3°
